GW1660 Weather Reports


Display with metric or nautical units.
time (UTC)temp
F
wind
direction
speed
MPH
gust
MPH
rain 1hr
in
rain 24hr
in
rain mn
in
humidity
%
barometer
mb
20260507021051 59 280 5.0 6.0 0.00 0.23 0.23 79 1010.0
20260507020549 59 278 1.0 4.0 0.00 0.23 0.23 80 1010.0
20260507020045 59 290 1.0 4.0 0.00 0.23 0.23 80 1010.0
20260507015544 59 298 1.0 3.0 0.00 0.23 0.23 80 1010.0
20260507015041 59 278 1.0 2.0 0.00 0.23 0.23 81 1010.0
20260507014537 60 290 1.0 4.0 0.00 0.23 0.23 80 1010.2
20260507014033 60 281 3.0 3.0 0.00 0.23 0.23 80 1010.4
20260507013530 60 286 3.0 3.0 0.00 0.23 0.23 80 1010.3
20260507013027 61 276 1.0 7.0 0.00 0.23 0.23 78 1010.1
20260507012524 61 271 3.0 6.0 0.00 0.23 0.23 77 1010.5
20260507012020 61 278 5.0 4.0 0.00 0.23 0.23 77 1010.2
20260507011518 61 281 2.0 3.0 0.00 0.23 0.23 78 1010.2
20260507011014 61 276 2.0 7.0 0.00 0.23 0.23 78 1009.7
20260507010508 61 283 2.0 3.0 0.00 0.23 0.23 79 1010.0
20260507010005 61 274 4.0 6.0 0.00 0.23 0.23 79 1010.0
20260507005503 61 262 3.0 6.0 0.00 0.23 0.23 81 1009.6
20260507004959 62 321 1.0 3.0 0.00 0.23 0.23 82 1009.5
20260507004456 62 288 5.0 8.0 0.00 0.23 0.23 81 1009.6
20260507003953 62 305 3.0 6.0 0.00 0.23 0.23 80 1009.5
20260507003448 63 247 5.0 7.0 0.00 0.23 0.23 80 1009.4
20260507002943 63 295 4.0 7.0 0.00 0.23 0.23 81 1009.4
20260507002440 63 290 4.0 8.0 0.00 0.23 0.23 82 1009.2
20260507001937 64 251 2.0 6.0 0.00 0.23 0.23 83 1009.1
20260507001433 64 260 3.0 9.0 0.00 0.23 0.23 83 1009.1
20260507000931 65 287 3.0 4.0 0.00 0.23 0.23 87 1008.6
20260507000427 65 294 2.0 4.0 0.00 0.23 0.23 87 1008.5
20260506235922 65 274 4.0 6.0 0.00 0.23 0.23 87 1008.2
20260506235420 65 265 2.0 2.0 0.00 0.23 0.23 87 1008.1
20260506234915 65 286 2.0 2.0 0.00 0.23 0.23 88 1008.1
20260506234414 65 284 2.0 2.0 0.00 0.23 0.23 88 1008.1
20260506233911 65 272 1.0 2.0 0.00 0.23 0.23 88 1008.0
20260506233407 65 280 1.0 6.0 0.00 0.23 0.23 89 1008.0
20260506232904 65 275 1.0 2.0 0.00 0.23 0.23 89 1008.1
20260506232400 65 276 1.0 1.0 0.00 0.23 0.23 89 1007.8
20260506231856 65 283 1.0 1.0 0.00 0.23 0.23 89 1007.9
20260506231354 65 270 2.0 6.0 0.05 0.23 0.23 89 1008.0
20260506230851 65 289 4.0 6.0 0.05 0.23 0.23 88 1008.0
20260506230348 66 286 1.0 4.0 0.00 0.22 0.22 87 1008.0
20260506225844 66 292 2.0 2.0 0.00 0.22 0.22 85 1008.0
20260506225341 67 278 1.0 1.0 0.00 0.22 0.22 84 1007.9
20260506224838 67 278 1.0 3.0 0.00 0.22 0.22 83 1007.9
20260506224335 67 288 3.0 3.0 0.00 0.22 0.22 82 1007.9
20260506223831 67 283 1.0 2.0 0.00 0.22 0.22 82 1007.9
20260506223326 67 246 1.0 3.0 0.00 0.22 0.22 81 1007.9
20260506222824 67 271 2.0 2.0 0.00 0.22 0.22 82 1007.8
20260506222319 67 282 1.0 1.0 0.00 0.22 0.22 81 1007.7
20260506221813 67 277 1.0 1.0 0.00 0.22 0.22 81 1007.9
20260506221310 68 290 3.0 4.0 0.00 0.22 0.22 79 1007.6
20260506220808 68 282 2.0 2.0 0.00 0.22 0.22 78 1007.7
20260506220307 68 283 1.0 4.0 0.00 0.22 0.22 78 1007.6
20260506215804 68 263 1.0 3.0 0.00 0.22 0.22 77 1007.5
20260506215300 68 289 1.0 2.0 0.00 0.22 0.22 78 1007.3
20260506214756 68 290 1.0 3.0 0.00 0.22 0.22 77 1007.3
20260506214253 68 307 1.0 4.0 0.00 0.22 0.22 78 1007.4
20260506213752 68 297 2.0 3.0 0.00 0.22 0.22 77 1007.2
20260506213248 68 296 4.0 7.0 0.00 0.22 0.22 77 1007.3
20260506212746 68 290 6.0 7.0 0.00 0.22 0.22 76 1007.3
20260506212241 68 288 5.0 6.0 0.00 0.22 0.22 76 1007.5
20260506211737 68 285 2.0 4.0 0.00 0.22 0.22 76 1007.2
20260506211233 68 287 2.0 6.0 0.00 0.22 0.22 76 1007.0
20260506210730 69 255 1.0 4.0 0.00 0.22 0.22 75 1007.1
20260506210227 69 280 6.0 10.0 0.00 0.22 0.22 74 1007.0
20260506205724 70 269 4.0 8.0 0.00 0.22 0.22 73 1007.1
20260506205220 70 199 1.0 4.0 0.00 0.22 0.22 73 1006.8
20260506204717 70 260 1.0 2.0 0.00 0.22 0.22 74 1006.7
20260506204214 70 223 2.0 3.0 0.00 0.22 0.22 73 1006.9
20260506203712 70 273 2.0 3.0 0.00 0.22 0.22 73 1006.8
20260506203209 69 314 1.0 4.0 0.00 0.22 0.22 75 1007.2
20260506202707 69 256 5.0 8.0 0.00 0.22 0.22 74 1007.1
20260506202203 69 283 1.0 4.0 0.00 0.22 0.22 76 1007.0
20260506201700 68 280 4.0 4.0 0.00 0.22 0.22 76 1007.1
20260506201156 68 294 5.0 7.0 0.00 0.22 0.22 76 1007.1
20260506200653 68 286 3.0 3.0 0.00 0.22 0.22 76 1006.9
20260506200150 67 299 1.0 3.0 0.00 0.22 0.22 78 1007.0
20260506195646 67 265 2.0 6.0 0.00 0.22 0.22 78 1007.1
20260506195143 67 298 2.0 4.0 0.00 0.22 0.22 78 1007.2
20260506194640 67 271 2.0 3.0 0.00 0.22 0.22 79 1007.1
20260506194136 67 285 5.0 7.0 0.00 0.22 0.22 77 1007.1
20260506193634 67 274 2.0 7.0 0.00 0.22 0.22 77 1007.2
20260506193131 68 267 2.0 4.0 0.00 0.22 0.22 77 1007.2
20260506192628 68 283 2.0 4.0 0.00 0.22 0.22 75 1007.2
20260506192124 68 306 4.0 4.0 0.00 0.22 0.22 76 1007.1
20260506191621 68 281 3.0 4.0 0.00 0.22 0.22 76 1007.1
20260506191117 67 276 3.0 7.0 0.00 0.22 0.22 77 1007.3
20260506190615 67 270 1.0 4.0 0.00 0.22 0.22 77 1007.1
20260506190111 67 255 4.0 6.0 0.00 0.22 0.22 76 1007.3
20260506185608 68 359 2.0 8.0 0.00 0.22 0.22 76 1007.3
20260506185104 68 329 2.0 2.0 0.00 0.22 0.22 76 1007.4
20260506184602 69 284 1.0 3.0 0.00 0.22 0.22 75 1007.3
20260506184059 69 227 1.0 3.0 0.00 0.22 0.22 75 1007.2
20260506183555 69 282 2.0 6.0 0.00 0.22 0.22 75 1007.6
20260506183052 69 83 2.0 2.0 0.00 0.22 0.22 76 1007.6
20260506182549 68 311 2.0 3.0 0.00 0.22 0.22 79 1007.5
20260506182046 66 295 3.0 7.0 0.00 0.22 0.22 82 1007.8
20260506181544 65 256 1.0 2.0 0.00 0.22 0.22 83 1007.7
20260506181041 65 272 1.0 4.0 0.00 0.22 0.22 83 1007.9
20260506180537 65 144 1.0 3.0 0.00 0.22 0.22 84 1007.8
20260506180034 65 263 1.0 4.0 0.00 0.22 0.22 84 1008.0
20260506175531 64 283 0.0 6.0 0.00 0.22 0.22 85 1008.0
20260506175027 64 289 1.0 1.0 0.00 0.22 0.22 86 1007.9
20260506174526 64 185 1.0 2.0 0.00 0.22 0.22 86 1008.1
20260506174021 63 183 1.0 3.0 0.00 0.22 0.22 86 1007.9
20260506173519 63 180 3.0 3.0 0.00 0.22 0.22 86 1007.9
20260506173016 63 269 1.0 3.0 0.00 0.22 0.22 86 1007.9
20260506172514 63 181 2.0 6.0 0.00 0.22 0.22 86 1008.0
20260506172009 63 240 1.0 3.0 0.00 0.22 0.22 87 1008.0
20260506171508 63 287 1.0 3.0 0.00 0.22 0.22 86 1007.8
20260506171005 63 291 0.0 4.0 0.00 0.22 0.22 87 1008.0
20260506170502 63 252 0.0 1.0 0.00 0.22 0.22 88 1008.1
20260506165959 63 284 1.0 2.0 0.00 0.22 0.22 88 1007.9
20260506165458 63 283 0.0 1.0 0.00 0.22 0.22 89 1007.9
20260506164953 63 111 0.0 2.0 0.00 0.22 0.22 88 1008.0
20260506164450 62 286 1.0 2.0 0.00 0.22 0.22 89 1007.8
20260506163948 62 262 1.0 1.0 0.00 0.22 0.22 89 1007.7
20260506163443 62 266 2.0 4.0 0.00 0.22 0.22 90 1007.9
20260506162938 62 171 2.0 2.0 0.00 0.22 0.22 91 1008.1
20260506162436 62 152 1.0 2.0 0.00 0.22 0.22 91 1008.1
20260506161933 62 102 1.0 2.0 0.00 0.22 0.22 91 1007.9
20260506161431 62 180 2.0 2.0 0.00 0.22 0.22 90 1008.1
20260506160928 62 168 0.0 1.0 0.00 0.22 0.22 91 1008.1
20260506160426 62 81 0.0 0.0 0.00 0.22 0.22 91 1008.2
20260506155923 63 242 0.0 1.0 0.00 0.22 0.22 90 1008.1
20260506155420 63 307 1.0 1.0 0.00 0.22 0.22 91 1008.0
20260506153537 62 164 3.0 3.0 0.05 0.21 0.21 92 1007.5
20260506153034 61 108 6.0 7.0 0.00 0.20 0.20 92 1007.6
20260506152531 62 135 6.0 8.0 0.07 0.20 0.20 92 1007.7
20260506152029 62 165 2.0 3.0 0.14 0.20 0.20 92 1008.1
20260506151526 62 164 0.0 3.0 0.12 0.19 0.19 92 1008.3
20260506151023 62 145 2.0 3.0 0.12 0.18 0.18 91 1008.6
20260506150519 62 169 1.0 1.0 0.12 0.17 0.17 92 1008.6
20260506150016 62 153 1.0 3.0 0.12 0.16 0.16 91 1008.6
20260506145513 62 110 0.0 1.0 0.07 0.15 0.15 91 1008.9
20260506145010 62 166 1.0 2.0 0.05 0.14 0.14 90 1008.9
20260506144507 62 240 1.0 1.0 0.07 0.13 0.13 89 1009.0
20260506144005 62 245 1.0 1.0 0.07 0.13 0.13 89 1009.0
20260506143503 62 299 2.0 3.0 0.00 0.12 0.12 89 1008.9
20260506143001 62 229 1.0 1.0 0.00 0.12 0.12 89 1008.8
20260506142458 62 268 0.0 2.0 0.05 0.12 0.12 89 1008.7
20260506141956 62 77 1.0 2.0 0.07 0.11 0.11 89 1008.7
20260506141453 62 173 2.0 3.0 0.07 0.11 0.11 89 1008.6
20260506140952 62 86 1.0 2.0 0.00 0.10 0.10 89 1008.6
20260506140448 62 193 1.0 2.0 0.12 0.10 0.10 90 1008.4
20260506135944 62 126 3.0 3.0 0.07 0.09 0.09 90 1008.4
20260506135442 62 185 2.0 2.0 0.12 0.08 0.08 89 1008.3
20260506134938 62 190 1.0 3.0 0.12 0.08 0.08 88 1008.4
20260506134434 62 165 2.0 3.0 0.12 0.06 0.06 87 1008.3
20260506133931 62 161 1.0 1.0 0.19 0.06 0.06 85 1008.4
20260506133428 63 88 1.0 1.0 0.12 0.04 0.04 85 1008.7
20260506132925 63 127 0.0 1.0 0.05 0.03 0.03 84 1008.5
20260506132422 63 112 0.0 2.0 0.00 0.02 0.02 83 1008.4
20260506131920 63 159 1.0 2.0 0.00 0.02 0.02 83 1008.5
20260506131416 63 87 0.0 0.0 0.00 0.02 0.02 83 1008.4
20260506130913 63 113 0.0 1.0 0.00 0.02 0.02 83 1008.5
20260506130409 63 137 1.0 3.0 0.00 0.02 0.02 82 1008.6
20260506125908 63 168 1.0 2.0 0.07 0.02 0.02 83 1008.5
20260506125406 63 179 2.0 2.0 0.07 0.02 0.02 82 1008.7
20260506124904 64 203 2.0 1.0 0.00 0.01 0.01 80 1008.7
20260506124400 64 282 0.0 1.0 0.00 0.01 0.01 79 1008.7
20260506123858 64 260 0.0 1.0 0.00 0.01 0.01 77 1008.9
20260506123356 64 230 0.0 0.0 0.00 0.01 0.01 78 1008.7
20260506122853 64 277 0.0 1.0 0.05 0.01 0.01 77 1008.9
20260506122350 64 249 0.0 0.0 0.05 0.01 0.01 77 1009.0
20260506121848 64 258 1.0 1.0 0.00 0.00 0.00 76 1008.9
20260506121345 64 271 2.0 3.0 0.00 0.00 0.00 75 1009.2
20260506120842 64 271 0.0 1.0 0.00 0.00 0.00 75 1009.1
20260506120340 65 277 0.0 1.0 0.00 0.00 0.00 74 1009.0
20260506115837 65 286 0.0 2.0 0.00 0.00 0.00 73 1009.0
20260506115335 65 239 0.0 0.0 0.00 0.00 0.00 72 1008.4
20260506114833 66 270 1.0 3.0 0.00 0.00 0.00 70 1008.6
20260506114330 66 187 2.0 3.0 0.00 0.00 0.00 69 1008.6
20260506113829 66 187 1.0 2.0 0.00 0.00 0.00 68 1008.2
20260506113326 66 245 2.0 3.0 0.00 0.00 0.00 68 1008.6
20260506112822 66 230 0.0 1.0 0.00 0.00 0.00 69 1008.4
20260506112320 66 271 1.0 3.0 0.00 0.00 0.00 68 1008.4
20260506111817 66 233 0.0 0.0 0.00 0.00 0.00 68 1008.3
20260506111315 66 273 1.0 2.0 0.00 0.00 0.00 66 1008.5
20260506110812 66 262 0.0 1.0 0.00 0.00 0.00 66 1008.2
20260506110309 67 218 0.0 4.0 0.00 0.00 0.00 65 1008.3
20260506105806 67 174 1.0 4.0 0.00 0.00 0.00 64 1008.1
20260506105305 67 219 0.0 3.0 0.00 0.00 0.00 63 1008.1
20260506104800 67 100 1.0 2.0 0.00 0.00 0.00 63 1007.8
20260506104258 67 240 0.0 2.0 0.00 0.00 0.00 62 1007.9
20260506103755 67 193 3.0 6.0 0.00 0.00 0.00 62 1008.0
20260506103253 67 210 2.0 2.0 0.00 0.00 0.00 61 1008.1
20260506102750 67 57 2.0 4.0 0.00 0.00 0.00 61 1008.1
20260506102248 67 155 2.0 4.0 0.00 0.00 0.00 61 1007.8
20260506101744 67 94 2.0 2.0 0.00 0.00 0.00 61 1007.6
20260506101241 67 206 1.0 2.0 0.00 0.00 0.00 61 1007.8
20260506100739 67 85 0.0 1.0 0.00 0.00 0.00 60 1007.8
20260506100237 67 142 2.0 6.0 0.00 0.00 0.00 60 1007.8
20260506095736 67 293 0.0 2.0 0.00 0.00 0.00 60 1007.6
20260506095232 67 171 0.0 2.0 0.00 0.00 0.00 60 1007.6
20260506094728 67 107 4.0 6.0 0.00 0.00 0.00 60 1007.7
20260506094227 68 119 1.0 1.0 0.00 0.00 0.00 59 1007.6
20260506093726 68 146 2.0 2.0 0.00 0.00 0.00 59 1007.5
20260506093222 68 274 1.0 4.0 0.00 0.00 0.00 59 1007.5
20260506092720 68 111 0.0 6.0 0.00 0.00 0.00 58 1007.7
20260506092217 68 132 3.0 3.0 0.00 0.00 0.00 58 1007.6
20260506091715 68 119 1.0 2.0 0.00 0.00 0.00 58 1007.9
20260506091212 68 150 1.0 3.0 0.00 0.00 0.00 57 1008.0
20260506090710 68 155 1.0 3.0 0.00 0.00 0.00 57 1008.0
20260506090206 68 169 1.0 2.0 0.00 0.00 0.00 57 1007.8
20260506085703 68 153 1.0 2.0 0.00 0.00 0.00 56 1008.0
20260506085159 68 172 1.0 1.0 0.00 0.00 0.00 56 1007.8
20260506084656 68 143 0.0 2.0 0.00 0.00 0.00 56 1007.9
20260506084152 69 132 1.0 3.0 0.00 0.00 0.00 56 1007.8
20260506083649 69 188 2.0 8.0 0.00 0.00 0.00 55 1007.9
20260506083147 69 137 3.0 6.0 0.00 0.00 0.00 55 1007.9
20260506082645 69 140 0.0 4.0 0.00 0.00 0.00 54 1007.8
20260506082144 69 165 2.0 3.0 0.00 0.00 0.00 54 1007.8
20260506081643 69 110 0.0 2.0 0.00 0.00 0.00 54 1007.8
20260506081140 69 191 2.0 3.0 0.00 0.00 0.00 53 1007.8
20260506080638 70 97 0.0 3.0 0.00 0.00 0.00 53 1007.9
20260506080134 70 74 1.0 2.0 0.00 0.00 0.00 53 1007.8
20260506073118 70 105 1.0 2.0 0.00 0.00 0.00 51 1008.0
20260506072615 70 133 1.0 3.0 0.00 0.00 0.00 51 1008.1
20260506072113 70 64 0.0 3.0 0.00 0.00 0.00 51 1008.0
20260506071610 70 196 1.0 2.0 0.00 0.00 0.00 51 1008.0
20260506071108 70 238 2.0 2.0 0.00 0.00 0.00 51 1008.2
20260506070605 71 211 0.0 2.0 0.00 0.00 0.00 50 1008.0
20260506062039 71 274 1.0 1.0 0.00 0.00 0.00 49 1008.5
20260506061534 71 256 1.0 1.0 0.00 0.00 0.00 48 1008.7
20260506061032 71 186 2.0 2.0 0.00 0.00 0.00 48 1008.6
20260506060531 71 183 2.0 8.0 0.00 0.00 0.00 48 1008.6
20260506050959 71 98 0.0 1.0 0.00 0.00 0.00 45 1009.1
20260506050457 71 189 1.0 3.0 0.00 0.00 0.00 44 1009.1
20260506044947 71 191 2.0 4.0 0.00 0.00 0.00 43 1009.0
20260506044446 71 157 3.0 4.0 0.00 0.00 0.00 43 1009.0
20260506043942 71 211 2.0 3.0 0.00 0.00 0.00 43 1009.1
20260506043439 71 180 2.0 3.0 0.00 0.00 0.00 43 1009.2
20260506042937 70 80 0.0 4.0 0.00 0.00 0.00 43 1009.0
20260506042437 70 159 1.0 1.0 0.00 0.00 0.00 43 1009.3
20260506041934 70 98 0.0 3.0 0.00 0.00 0.00 42 1009.2
20260506041432 70 134 1.0 3.0 0.00 0.00 0.00 42 1009.1
20260506040929 70 162 1.0 1.0 0.00 0.00 0.00 42 1009.0
20260506040426 70 191 3.0 4.0 0.00 0.00 0.00 41 1009.2
20260506035922 69 114 1.0 3.0 0.00 0.00 0.00 41 1009.2
20260506035420 69 157 0.0 3.0 0.00 0.00 0.00 42 1009.1
20260506034916 69 149 1.0 3.0 0.00 0.00 0.00 42 1009.2
20260506034414 69 174 2.0 3.0 0.00 0.00 0.00 41 1009.2
20260506033910 69 147 1.0 3.0 0.00 0.00 0.00 42 1009.0
20260506033408 68 151 2.0 3.0 0.00 0.00 0.00 42 1009.1
20260506032904 68 140 2.0 3.0 0.00 0.00 0.00 42 1009.0
20260506032401 69 144 2.0 3.0 0.00 0.00 0.00 42 1009.0
20260506031858 69 140 1.0 3.0 0.00 0.00 0.00 40 1009.1
20260506031355 70 152 2.0 3.0 0.00 0.00 0.00 39 1009.2
20260506030853 71 138 3.0 4.0 0.00 0.00 0.00 38 1009.3
20260506030351 71 156 2.0 3.0 0.00 0.00 0.00 37 1009.3
20260506025847 72 135 2.0 3.0 0.00 0.00 0.00 36 1009.1
20260506025344 72 138 2.0 3.0 0.00 0.00 0.00 35 1009.1
20260506024841 72 174 4.0 4.0 0.00 0.00 0.00 35 1009.3
20260506024338 73 95 3.0 3.0 0.00 0.00 0.00 34 1009.1
20260506023834 73 193 1.0 2.0 0.00 0.00 0.00 35 1009.2
20260506023331 73 207 0.0 1.0 0.00 0.00 0.00 34 1009.4
20260506022828 73 203 1.0 3.0 0.00 0.00 0.00 33 1009.2
20260506022325 74 205 1.0 4.0 0.00 0.00 0.00 33 1009.2
20260506021824 74 184 0.0 4.0 0.00 0.00 0.00 33 1009.1
20260506021320 74 188 0.0 2.0 0.00 0.00 0.00 33 1008.9